Tracking 27107 objects as of 21-Mar-2023
HD Live streaming from Space Station
objects crossing your sky now

STARLINK-4031

Track STARLINK-4031 now!
10-day predictions
STARLINK-4031 is classified as:


NORAD ID: 52679
Int'l Code: 2022-053Z
Perigee: 546.1 km
Apogee: 547.7 km
Inclination: 53.2 °
Period: 95.4 minutes
Semi major axis: 6917 km
RCS: Unknown
Launch date: May 18, 2022
Source: United States (US)
Launch site: AIR FORCE EASTERN TEST RANGE (AFETR)
Your satellite tracking list
Your tracking list is empty




NASA's NSSDC Master Catalog

Two Line Element Set (TLE):
1 52679U 22053Z   23079.40377165  .00020667  00000-0  13132-2 0  9998
2 52679  53.2175 336.1570 0001194 101.1443 258.9683 15.08829373 47297
Source of the keplerian elements: AFSPC